Regional Weather Roundup
Issued by NWS Cleveland, OH

Home | Current Version | Previous Version | Graphics & Text | Print | Product List | Glossary On
Versions: 1 2 3 4 5 6 7 8 9 10 11 12 13 14 15 16 17 18 19 20 21 22 23 24 25 26 27 28 29 30 31 32 33 34 35 36 37 38 39 40 41 42 43 44 45 46 47 48 49 50
000
ASUS41 KCLE 190210
RWRCLE
OHIO REGIONAL WEATHER ROUNDUP
NATIONAL WEATHER SERVICE CLEVELAND, OH
900 PM EST SUN FEB 18 2018

NOTE: "FAIR" INDICATES FEW OR NO CLOUDS BELOW 12,000 FEET WITH NO
SIGNIFICANT WEATHER AND/OR OBSTRUCTIONS TO VISIBILITY.

OHZ001>008-015>018-024>027-034-035-043-044-190300-
   NORTHWEST OHIO

CITY           SKY/WX    TMP DP  RH WIND       PRES   REMARKS
DEFIANCE       FAIR      38  30  73 SE10      30.15F
FINDLAY        FAIR      37  28  70 SE12      30.17F
TOLEDO EXPRESS FAIR      36  31  82 SE5       30.17F
TOLEDO EXEC    FAIR      36  28  73 SE8       30.19F
LIMA           FAIR      36  31  82 SE10      30.15F
$$

OHZ009>014-019>023-028>033-038-089-190300-
   NORTHEAST OHIO

CITY           SKY/WX    TMP DP  RH WIND       PRES   REMARKS
CLE-HOPKINS    MOCLDY    37  27  67 S10       30.26S
CLE-LAKEFRONT  FAIR      38  25  59 SE13G20   30.23F
CUY CO. ARPT   PTCLDY    39  27  60 S12       30.24F
LORAIN-ELYRIA  FAIR      36  24  62 S13       30.22F
ASHTABULA      FAIR      35  27  72 SE9       30.26F WCI  28
AKRON-CANTON   MOCLDY    34  25  69 SE13      30.24F WCI  25
WOOSTER        FAIR      33  27  78 SE10      30.24F WCI  25
MANSFIELD      FAIR      34  27  75 SE16      30.20F WCI  24
YOUNGSTOWN     MOCLDY    33  25  72 E9        30.24F WCI  25
$$

OHZ042-051>053-060>062-070>072-077>081-190300-
  SOUTHWEST OHIO

CITY           SKY/WX    TMP DP  RH WIND       PRES   REMARKS
CINC-COVINGTON MOCLDY    40  34  79 E8        30.15F
CINC-LUNKEN    FAIR      39  36  89 N3        30.19F
HAMILTON       FAIR      38  33  82 E5        30.18F
DAYTON         MOCLDY    38  32  79 SE13      30.16F
WRIGHT-PAT AFB FAIR      39  30  70 SE8       30.18F
DAYTON GENERAL FAIR      41  31  67 E9        30.16F
WILMINGTON     FAIR      37  32  82 E8        30.18F
$$

OHZ036-037-039>041-045>050-054>059-063>069-073>076-082>088-190300-
  CENTRAL AND SOUTHEAST OHIO

CITY           SKY/WX    TMP DP  RH WIND       PRES   REMARKS
COLUMBUS       MOCLDY    37  30  75 SE6       30.22F
OSU AIRPORT    FAIR      38  30  73 SE9       30.22F
BOLTON FIELD   FAIR      37  30  75 SE6       30.22F
RICKENBACK AFB FAIR      35  30  80 E5        30.22F
NEWARK         FAIR      35  27  72 E3        30.22F
MARION         FAIR      35  28  75 SE13      30.20F WCI  26
LANCASTER      FAIR      36  28  73 SE7       30.23F
ZANESVILLE     FAIR      35  27  72 E5        30.24F
NEW PHILLY     NOT AVBL
$$




USA.gov is the U.S. government's official web portal to all federal, state and local government web resources and services.